SCP
0 0 0 0 0 0 0 0 0 0 0 0 0 0 0 0 0 0 0 0 0 0
0 0 0 0 0 0 0 0 0 0 0 0 0 0 0 0 0 0 0 0 0 0
0 0 0 0 0 0 0 0 0 0 0 0 0 0 0 0 0 0 0 0 0 0
0 0 0 0 0 0 0 0 0 0 0 0 0 0 0 0 0 0 0 0 0 0
0 0 0 0 0 0 0 0 0 0 0 0 0 0 0 0 0 0 0 0 0 0
0 0 0 0 0 0 0 0 0 0 0 0 0 0 0 0 0 0 0 0 0 0
0 0 0 0 0 0 0 0 0 0 0 0 0 0 0 0 0 0 0 0 0 0
0 0 0 0 0 0 0 0 0 0 0 0 0 0 0 0 0 0 0 0 0 0
0 0 0 0 0 0 0 0 0 0 0 0 0 0 0 0 0 0 0 0 0 0
0 0 0 0 0 0 0 0 0 0 0 0 0 0 0 0 0 0 0 0 0 0
0 0 0 0 0 0 0 0 0 0 0 0 0 0 0 0 0 0 0 0 0 0
0 0 0 0 0 0 0 0 0 0 0 0 0 0 0 0 0 0 0 0 0 0
0 0 0 0 0 0 0 0 0 0 0 0 0 0 0 0 0 0 0 0 0 0
0 0 0 0 0 0 0 0 0 0 0 0 0 0 0 0 0 0 0 0 0 0
Wind_Speed_500mb
60 60 61 57 62 62 55 56 56 53 48 42 35 20 15 6 7 10 14 19 17 27
63 66 61 65 57 67 56 56 45 37 25 21 15 12 8 24 19 19 24 29 37 42
65 68 67 64 61 58 56 46 39 23 8 7 20 14 33 31 48 23 28 24 24 22
58 58 67 64 61 50 41 26 18 23 12 9 29 31 25 26 24 22 22 19 20 20
44 47 51 56 51 39 35 30 30 23 24 18 25 22 13 18 21 22 21 21 21 22
63 62 67 51 37 28 24 22 20 24 18 17 19 19 21 20 19 19 21 23 25 27
82 82 74 59 47 36 35 31 27 23 24 23 22 22 22 18 16 18 22 26 27 28
85 77 66 59 51 46 40 31 26 25 25 23 21 18 15 13 14 17 20 23 24 25
68 65 59 57 53 47 37 35 31 23 20 18 16 14 11 11 11 13 16 19 23 25
62 56 50 48 40 41 39 33 26 24 22 17 13 9 4 6 10 12 16 18 20 25
57 53 51 46 40 36 30 27 26 22 16 12 7 1 4 7 8 11 15 19 24 28
41 41 42 41 39 34 27 23 18 16 13 10 9 6 2 4 9 15 19 23 25 28
38 40 37 34 32 28 23 19 19 17 16 13 9 4 5 12 16 19 21 23 26 29
33 28 25 23 22 20 21 20 20 18 15 10 4 5 9 12 15 16 18 21 25 30
Wind_Direction_500mb
217 215 216 219 220 219 225 218 221 223 225 227 231 219 221 185 236 271 286 291 294 291
218 219 220 222 228 223 222 212 202 188 169 138 116 79 15 328 318 303 288 296 300 293
218 219 220 223 220 217 205 192 178 160 134 129 267 241 298 294 290 289 276 268 270 269
220 221 222 216 197 176 157 156 168 202 231 245 251 238 266 278 269 261 260 260 264 277
215 217 221 195 170 164 176 174 179 216 208 212 207 242 233 239 247 254 264 275 284 288
206 212 189 175 170 174 178 191 202 201 184 190 225 218 226 233 247 262 274 282 289 295
182 184 184 182 174 169 177 184 178 187 200 198 199 211 222 226 247 267 280 288 294 299
177 178 174 172 172 168 167 168 168 176 183 194 206 216 227 248 264 279 288 293 300 307
169 167 168 167 163 165 163 162 167 172 192 201 219 228 245 270 284 293 296 301 307 312
157 154 152 149 149 146 164 162 174 189 198 202 211 239 267 308 313 308 310 312 318 323
145 144 144 147 162 153 170 167 176 181 189 190 178 185 337 333 325 325 323 325 332 335
148 150 155 158 163 166 168 171 169 170 159 163 170 167 225 331 341 345 346 345 346 342
154 157 158 159 160 160 161 163 165 163 163 172 167 157 12 1 359 353 348 347 344 340
155 152 156 161 162 163 162 163 172 171 170 166 147 28 11 357 348 335 335 341 336 336
Wind_Speed_850mb
60 60 61 57 62 62 55 56 56 53 48 42 35 20 15 6 7 10 14 19 17 27
63 66 61 65 57 67 56 56 45 37 25 21 15 12 8 24 19 19 24 29 37 42
65 68 67 64 61 58 56 46 39 23 8 7 20 14 33 31 48 23 28 24 24 22
58 58 67 64 61 50 41 26 18 23 12 9 29 31 25 26 24 22 22 19 20 20
44 47 51 56 51 39 35 30 30 23 24 18 25 22 13 18 21 22 21 21 21 22
63 62 67 51 37 28 24 22 20 24 18 17 19 19 21 20 19 19 21 23 25 27
82 82 74 59 47 36 35 31 27 23 24 23 22 22 22 18 16 18 22 26 27 28
85 77 66 59 51 46 40 31 26 25 25 23 21 18 15 13 14 17 20 23 24 25
68 65 59 57 53 47 37 35 31 23 20 18 16 14 11 11 11 13 16 19 23 25
62 56 50 48 40 41 39 33 26 24 22 17 13 9 4 6 10 12 16 18 20 25
57 53 51 46 40 36 30 27 26 22 16 12 7 1 4 7 8 11 15 19 24 28
41 41 42 41 39 34 27 23 18 16 13 10 9 6 2 4 9 15 19 23 25 28
38 40 37 34 32 28 23 19 19 17 16 13 9 4 5 12 16 19 21 23 26 29
33 28 25 23 22 20 21 20 20 18 15 10 4 5 9 12 15 16 18 21 25 30
Wind_Direction_850mb
217 215 216 219 220 219 225 218 221 223 225 227 231 219 221 185 236 271 286 291 294 291
218 219 220 222 228 223 222 212 202 188 169 138 116 79 15 328 318 303 288 296 300 293
218 219 220 223 220 217 205 192 178 160 134 129 267 241 298 294 290 289 276 268 270 269
220 221 222 216 197 176 157 156 168 202 231 245 251 238 266 278 269 261 260 260 264 277
215 217 221 195 170 164 176 174 179 216 208 212 207 242 233 239 247 254 264 275 284 288
206 212 189 175 170 174 178 191 202 201 184 190 225 218 226 233 247 262 274 282 289 295
182 184 184 182 174 169 177 184 178 187 200 198 199 211 222 226 247 267 280 288 294 299
177 178 174 172 172 168 167 168 168 176 183 194 206 216 227 248 264 279 288 293 300 307
169 167 168 167 163 165 163 162 167 172 192 201 219 228 245 270 284 293 296 301 307 312
157 154 152 149 149 146 164 162 174 189 198 202 211 239 267 308 313 308 310 312 318 323
145 144 144 147 162 153 170 167 176 181 189 190 178 185 337 333 325 325 323 325 332 335
148 150 155 158 163 166 168 171 169 170 159 163 170 167 225 331 341 345 346 345 346 342
154 157 158 159 160 160 161 163 165 163 163 172 167 157 12 1 359 353 348 347 344 340
155 152 156 161 162 163 162 163 172 171 170 166 147 28 11 357 348 335 335 341 336 336